User: anonymous   Login
Location: Standeford and Andreas Observatories
(44.1397°N, 93.9969°W)
Time: 17:18:10
(UTC-05:00)
Language:

Cosmos 1500 Rocket - Orbit

View from above orbital plane
View from above orbital plane
View from above satellite
View from above satellite

Ground track
Ground track

The orbit data is extracted from the following two-line orbital elements,

1 14373U 83099B   17288.67575203 +.00000118 +00000-0 +11311-4 0  9999
2 14373 082.5386 131.9605 0019996 184.8025 218.1847 14.83696857817643
Epoch (UTC): 15 October 2017 16:13:04
Eccentricity: 0.0019996
inclination: 82.5386°
perigee height: 603 km
apogee height: 631 km
right ascension of ascending node: 131.9605°
argument of perigee: 184.8025°
revolutions per day: 14.83696857
mean anomaly at epoch: 218.1847°
orbit number at epoch: 81764

The dashed part of the orbit path shows where the satellite is in the earth's shadow,  

DLR